Current Weather Conditions: station 44062

sailwx.info

Air temperature 1.5° C

Last reported at 2019-Dec-12 18:24 UTC.
Time now 2019-Dec-12 19:27 UTC

Location: N 38°36' W 076°24'.
View on Google Maps.

See reports from other nearby stations

  
Tides and Currents Weather Stations Pressure Air Temp Water Temp Dewpoint Dewpoint Depression Visibility Wind Speed Wind Dir Waves Ship Positions
date/time (UTC)wind fromknots sea level pressurealtimeterstation pressurevisibilityair tempwater tempwave heightnotes
2019-Dec-12 18:24 1.5
2019-Dec-12 18:12 350 1 gusting 3 1.6
2019-Dec-12 17:54 030 1 gusting 1 1.3
2019-Dec-12 17:30 010 3 gusting 3 1.1
2019-Dec-12 17:24 040 1 gusting 3 0.9
2019-Dec-12 17:12 040 1 gusting 3 0.8
2019-Dec-12 17:00 070 3 gusting 3 0.9 0.2
2019-Dec-12 16:42 180 1 gusting 3 1.2
2019-Dec-12 16:18 050 1 gusting 3 0.9
2019-Dec-12 15:54 100 5 gusting 7 0.6
2019-Dec-12 15:42 080 5 gusting 7 0.6
2019-Dec-12 15:30 090 7 gusting 9 0.6
2019-Dec-12 15:00 100 9 gusting 11 0.5 0.3
2019-Dec-12 14:48 090 7 gusting 9 0.5
2019-Dec-12 14:18 080 9 gusting 11 0.6
2019-Dec-12 14:06 090 9 gusting 13 0.6
2019-Dec-12 13:54 090 11 gusting 13 0.6
2019-Dec-12 13:48 080 11 gusting 15 0.9
2019-Dec-12 13:42 060 9 gusting 13 1.0
2019-Dec-12 13:30 050 11 gusting 13 0.9
2019-Dec-12 13:18 070 11 gusting 13 1.0
2019-Dec-12 12:48 050 11 gusting 15 1.1
2019-Dec-12 12:42 060 13 gusting 15 1.1
2019-Dec-12 12:36 040 11 gusting 13 1.1
2019-Dec-12 12:24 020 13 gusting 15 1.2
2019-Dec-12 12:12 050 13 gusting 15 1.1
2019-Dec-12 12:06 040 13 gusting 17 1.3
2019-Dec-12 12:00 050 13 gusting 17 1.3 0.5
2019-Dec-12 11:42 040 15 gusting 19 1.5
2019-Dec-12 11:24 050 13 gusting 17 1.4
2019-Dec-12 11:12 050 13 gusting 15 1.5
2019-Dec-12 11:00 050 13 gusting 15 1.6 0.4
2019-Dec-12 10:48 020 15 gusting 17 1.7
2019-Dec-12 10:42 030 15 gusting 17 1.7
2019-Dec-12 10:30 010 13 gusting 17 1.6
2019-Dec-12 10:12 020 15 gusting 17 1.8
2019-Dec-12 10:06 010 15 gusting 19 1.8
2019-Dec-12 09:48 020 15 gusting 19 1.9
2019-Dec-12 09:42 030 17 gusting 19 1.8
2019-Dec-12 09:18 010 17 gusting 21 2.0
2019-Dec-12 09:12 010 17 gusting 21 2.0
2019-Dec-12 09:06 020 17 gusting 21 2.2
2019-Dec-12 09:00 020 17 gusting 21 2.1 0.4
2019-Dec-12 08:36 350 19 gusting 23 2.3
2019-Dec-12 08:12 350 17 gusting 21 2.2
2019-Dec-12 07:48 010 15 gusting 17 2.3
2019-Dec-12 07:36 360 15 gusting 19 2.2
2019-Dec-12 07:12 350 13 gusting 17 2.1
2019-Dec-12 07:00 360 11 gusting 15 2.1 0.3
2019-Dec-12 06:42 350 15 gusting 21 2.4
2019-Dec-12 06:24 340 13 gusting 15 2.2
2019-Dec-12 06:06 360 15 gusting 15 2.4
2019-Dec-12 05:54 350 15 gusting 17 2.5
2019-Dec-12 05:24 350 15 gusting 17 2.5
2019-Dec-12 05:18 340 15 gusting 17 2.6
2019-Dec-12 04:54 350 15 gusting 17 2.7
2019-Dec-12 04:48 360 15 gusting 17 2.7
2019-Dec-12 04:36 350 17 gusting 19 2.8
2019-Dec-12 04:24 350 17 gusting 19 2.8
2019-Dec-12 04:18 360 17 gusting 19 2.8
2019-Dec-12 04:06 360 15 gusting 19 2.9
2019-Dec-12 03:48 340 15 gusting 17 3.0
2019-Dec-12 03:30 360 15 gusting 19 3.2
2019-Dec-12 03:24 010 15 gusting 17 3.3
2019-Dec-12 03:12 350 15 gusting 17 3.3
2019-Dec-12 03:00 340 17 gusting 19 3.5 0.4
2019-Dec-12 02:48 350 19 gusting 23 3.6
2019-Dec-12 02:36 340 21 gusting 23 3.8
2019-Dec-12 02:18 360 19 gusting 21 3.9
2019-Dec-12 02:06 330 17 gusting 21 4.1
2019-Dec-12 01:54 350 19 gusting 21 4.4
2019-Dec-12 01:48 350 19 gusting 21 4.4
2019-Dec-12 01:18 360 19 gusting 21 4.6
2019-Dec-12 01:06 350 17 gusting 21 4.7
2019-Dec-12 00:42 340 13 gusting 13 4.5
2019-Dec-12 00:24 340 9 gusting 11 4.5
2019-Dec-11 23:36 310 9 gusting 11 4.7
2019-Dec-11 23:30 320 9 gusting 9 4.4
2019-Dec-11 23:18 310 7 gusting 9 4.3
2019-Dec-11 23:12 290 7 gusting 7 4.3
2019-Dec-11 23:00 310 9 gusting 9 4.4
2019-Dec-11 22:54 320 9 gusting 11 4.5
2019-Dec-11 22:30 320 9 gusting 11 4.4
2019-Dec-11 22:24 320 9 gusting 11 4.2
2019-Dec-11 22:06 330 7 gusting 9 4.2
2019-Dec-11 22:00 340 9 gusting 9 4.2
2019-Dec-11 21:54 310 7 gusting 9 4.2
2019-Dec-11 21:48 290 9 gusting 11 4.2
2019-Dec-11 21:30 200 9 gusting 11 4.2
2019-Dec-11 21:24 320 9 gusting 9 4.2
2019-Dec-11 21:12 210 9 gusting 9 4.1
2019-Dec-11 21:06 300 11 gusting 13 4.0
2019-Dec-11 20:54 300 11 gusting 13 4.1
2019-Dec-11 20:42 320 9 gusting 11 4.1
2019-Dec-11 20:36 310 11 gusting 11 3.9
2019-Dec-11 20:24 300 13 gusting 15 3.9
2019-Dec-11 20:12 340 11 gusting 13 3.8
2019-Dec-11 19:42 350 13 gusting 15 3.8
2019-Dec-11 19:00 360 13 gusting 15 3.8 0.4
2019-Dec-11 18:42 310 17 gusting 19 3.7
2019-Dec-11 18:30 320 11 gusting 13 3.6
2019-Dec-11 18:12 330 13 gusting 15 3.6
2019-Dec-11 18:00 330 13 gusting 15 3.6 0.4
2019-Dec-11 17:48 310 11 gusting 15 3.5
2019-Dec-11 17:42 340 15 gusting 17 3.6
2019-Dec-11 17:30 010 13 gusting 15 3.5
2019-Dec-11 17:24 270 13 gusting 15 3.5
2019-Dec-11 17:18 290 15 gusting 15 3.5
2019-Dec-11 17:06 350 13 gusting 15 3.6
2019-Dec-11 16:54 330 13 gusting 15 3.5
2019-Dec-11 16:48 310 13 gusting 15 3.4
2019-Dec-11 16:36 070 11 gusting 13 3.3
2019-Dec-11 16:30 340 11 gusting 15 3.3
2019-Dec-11 16:24 310 11 gusting 13 3.3
2019-Dec-11 16:06 350 15 gusting 17 3.2
2019-Dec-11 15:18 320 15 gusting 17 3.0
2019-Dec-11 15:12 330 15 gusting 17 3.0
2019-Dec-11 14:54 340 15 gusting 17 2.8
2019-Dec-11 14:36 310 13 gusting 15 2.7
2019-Dec-11 14:18 340 15 gusting 19 2.6
2019-Dec-11 14:00 360 15 gusting 15 2.4 0.4
2019-Dec-11 13:54 010 15 gusting 17 2.3
2019-Dec-11 13:48 330 17 gusting 19 2.3
2019-Dec-11 13:18 350 15 gusting 19 2.4
2019-Dec-11 13:12 330 17 gusting 19 2.3
2019-Dec-11 13:06 350 17 gusting 19 2.3
2019-Dec-11 12:48 350 17 gusting 19 2.3
2019-Dec-11 12:42 350 15 gusting 17 2.3
2019-Dec-11 12:30 340 17 gusting 19 2.4
2019-Dec-11 12:12 320 15 gusting 19 2.0
2019-Dec-11 12:00 350 15 gusting 17 2.1 0.4
2019-Dec-11 11:48 320 15 gusting 19 2.3
2019-Dec-11 11:36 330 15 gusting 17 2.3
2019-Dec-11 11:30 310 15 gusting 17 2.3
2019-Dec-11 11:00 020 15 gusting 17 2.2 0.5
2019-Dec-11 10:42 040 19 gusting 21 2.1
2019-Dec-11 10:12 360 13 gusting 17 1.4
2019-Dec-11 10:06 310 13 gusting 17 1.3
2019-Dec-11 10:00 350 15 gusting 19 1.2 0.4
2019-Dec-11 09:54 020 17 gusting 19 1.3
2019-Dec-11 09:36 350 17 gusting 19 1.2
2019-Dec-11 09:30 350 17 gusting 21 1.5
2019-Dec-11 09:12 010 19 gusting 21 2.0
2019-Dec-11 08:54 350 19 gusting 23 2.7
2019-Dec-11 08:36 010 19 gusting 21 2.5
2019-Dec-11 08:18 360 17 gusting 21 3.0
2019-Dec-11 08:12 360 17 gusting 23 2.8
2019-Dec-11 08:00 0.4
2019-Dec-11 07:48 360 17 gusting 19 2.4
2019-Dec-11 07:42 010 17 gusting 21 2.6
2019-Dec-11 07:30 360 19 gusting 21 2.8
2019-Dec-11 07:18 360 19 gusting 23 3.2
2019-Dec-11 07:12 350 21 gusting 25 3.4
2019-Dec-11 07:06 360 17 gusting 19 3.5
2019-Dec-11 06:54 020 19 gusting 21 3.6
2019-Dec-11 06:42 010 19 gusting 23 3.9
2019-Dec-11 06:24 350 17 gusting 21 4.1
2019-Dec-11 06:18 020 19 gusting 23 4.2
2019-Dec-11 06:12 010 21 gusting 25 4.4
2019-Dec-11 05:54 360 19 gusting 23 4.9 2.9
2019-Dec-11 05:36 360 17 gusting 19 5.1
2019-Dec-11 05:24 010 17 gusting 19 5.2
2019-Dec-11 05:18 340 17 gusting 21 5.3
2019-Dec-11 04:54 010 19 gusting 23 5.7
2019-Dec-11 04:36 010 19 gusting 23 6.2
2019-Dec-11 04:30 360 17 gusting 21 6.4
2019-Dec-11 04:06 010 17 gusting 19 6.7
2019-Dec-11 04:00 360 17 gusting 21 6.8 0.4
2019-Dec-11 03:36 020 15 gusting 17 7.4
2019-Dec-11 03:18 360 13 gusting 15 7.3
2019-Dec-11 03:00 360 15 gusting 19 7.4 0.8
2019-Dec-11 02:48 020 13 gusting 15 7.7
2019-Dec-11 02:30 360 17 gusting 21 7.9
2019-Dec-11 01:54 360 11 gusting 11 8.3
2019-Dec-11 01:48 360 15 gusting 17 8.3
2019-Dec-11 01:42 010 17 gusting 19 8.3
2019-Dec-11 01:36 350 17 gusting 21 8.3
2019-Dec-11 01:24 360 17 gusting 19 8.8
2019-Dec-11 01:12 360 15 gusting 17 8.9
2019-Dec-11 01:00 010 17 gusting 19 9.3 0.4
2019-Dec-11 00:42 350 9 gusting 11 9.1
2019-Dec-11 00:36 360 5 gusting 5 9.1
2019-Dec-11 00:24 360 5 gusting 5 9.4
2019-Dec-11 00:12 020 5 gusting 7 9.7
2019-Dec-11 00:06 360 7 gusting 9 9.8
2019-Dec-10 23:18 010 9 gusting 11 10.2
2019-Dec-10 23:06 360 7 gusting 9 10.1
2019-Dec-10 22:42 350 9 gusting 9 9.8
2019-Dec-10 22:30 350 7 gusting 7 9.9
2019-Dec-10 22:24 360 7 gusting 7 9.9
2019-Dec-10 22:06 360 9 gusting 9 10.4
2019-Dec-10 21:36 020 7 gusting 9 12.2
2019-Dec-10 21:30 300 3 gusting 3 12.5
2019-Dec-10 21:24 300 3 gusting 3 12.5
2019-Dec-10 21:12 330 3 gusting 5 11.7
2019-Dec-10 20:48 260 3 gusting 3 11.6
2019-Dec-10 20:30 250 3 gusting 5 11.5
2019-Dec-10 20:12 250 3 gusting 3 11.5
2019-Dec-10 19:48 270 3 gusting 5 11.8
2019-Dec-10 19:42 250 7 gusting 7 11.8
2019-Dec-10 19:36 250 7 gusting 7 12.1
2019-Dec-10 19:24 220 7 gusting 9 12.4
2019-Dec-10 19:18 280 9 gusting 9 12.4
2019-Dec-10 19:12 260 11 gusting 11 12.6